When you browse on this site, cookies collect data to enhance your experience and personalize the content and advertising you see.
Visit our Privacy Policy to learn more. By continuing to use the site, you agree to this use of cookies and data.
  • In Hungary
  • List of Countries
  • For 7 days
  • Water Temperature
  • Satellite Maps
  • Weather Map
  • News
  • Weather Widgets
  • user-avatar
    Login

    Hourly Weather Uspenka

    Today, 20 July, Saturday

    Time Temperature Precipitation Wind Pressure Humidity
    00:00 +20°C° 0 mm 2 mps 754 mmHg 58%
    01:00 +19°C° 0 mm 2 mps 754 mmHg 63%
    02:00 +19°C° 0 mm 2 mps 754 mmHg 68%
    03:00 +19°C° 0 mm 1 mps 754 mmHg 73%
    04:00 +20°C° 0 mm 1 mps 755 mmHg 74%
    05:00 +20°C° 0 mm 1 mps 755 mmHg 74%
    06:00 +20°C° 0 mm 1 mps 756 mmHg 75%
    07:00 +22°C° 0 mm 1 mps 756 mmHg 69%
    08:00 +24°C° 0 mm 2 mps 756 mmHg 63%
    09:00 +25°C° 0 mm 2 mps 756 mmHg 56%
    10:00 +26°C° 0 mm 2 mps 756 mmHg 51%
    11:00 +27°C° 0 mm 2 mps 756 mmHg 46%
    12:00 +28°C° 0 mm 2 mps 756 mmHg 41%
    13:00 +29°C° 0 mm 2 mps 756 mmHg 38%
    14:00 +30°C° 0 mm 2 mps 756 mmHg 35%
    15:00 +30°C° 0 mm 2 mps 756 mmHg 33%
    16:00 +30°C° 0 mm 2 mps 756 mmHg 34%
    17:00 +30°C° 0 mm 2 mps 756 mmHg 35%
    18:00 +30°C° 0 mm 2 mps 756 mmHg 36%
    19:00 +28°C° 0 mm 1 mps 756 mmHg 40%
    20:00 +26°C° 0 mm 1 mps 756 mmHg 44%
    21:00 +22°C° 0 mm 0 mps 756 mmHg 48%
    22:00 +21°C° 0 mm 0 mps 756 mmHg 50%
    23:00 +23°C° 0 mm 1 mps 756 mmHg 52%

    Tomorrow, 21 July, Sunday

    Time Temperature Precipitation Wind Pressure Humidity
    00:00 +22°C° 0 mm 1 mps 756 mmHg 54%
    01:00 +22°C° 0 mm 1 mps 756 mmHg 57%
    02:00 +21°C° 0 mm 1 mps 756 mmHg 59%
    03:00 +21°C° 0 mm 1 mps 756 mmHg 61%
    04:00 +21°C° 0 mm 1 mps 756 mmHg 63%
    05:00 +21°C° 0 mm 1 mps 756 mmHg 64%
    06:00 +21°C° 0 mm 1 mps 756 mmHg 66%
    07:00 +23°C° 0 mm 1 mps 756 mmHg 60%
    08:00 +25°C° 0 mm 1 mps 756 mmHg 53%
    09:00 +27°C° 0 mm 2 mps 756 mmHg 47%
    10:00 +29°C° 0 mm 2 mps 756 mmHg 43%
    11:00 +30°C° 0 mm 1 mps 756 mmHg 38%
    12:00 +31°C° 0 mm 1 mps 756 mmHg 34%
    13:00 +31°C° 0 mm 1 mps 755 mmHg 35%
    14:00 +30°C° 0 mm 1 mps 755 mmHg 36%
    15:00 +30°C° 0 mm 1 mps 755 mmHg 37%
    16:00 +30°C° 0 mm 2 mps 755 mmHg 39%
    17:00 +29°C° 0 mm 2 mps 755 mmHg 41%
    18:00 +29°C° 0 mm 2 mps 755 mmHg 43%
    19:00 +27°C° 0 mm 2 mps 755 mmHg 48%
    20:00 +26°C° 0 mm 2 mps 755 mmHg 54%
    21:00 +24°C° 0 mm 1 mps 755 mmHg 59%
    22:00 +23°C° 0 mm 2 mps 755 mmHg 63%
    23:00 +21°C° 0 mm 2 mps 755 mmHg 68%

    Day after tomorrow, 22 July, Monday

    Time Temperature Precipitation Wind Pressure Humidity
    00:00 +21°C° 0 mm 2 mps 755 mmHg 72%
    01:00 +20°C° 0 mm 2 mps 755 mmHg 75%
    02:00 +20°C° 0 mm 2 mps 755 mmHg 78%
    03:00 +19°C° 0 mm 2 mps 755 mmHg 81%
    04:00 +20°C° 0 mm 2 mps 755 mmHg 79%
    05:00 +21°C° 0 mm 1 mps 755 mmHg 78%
    06:00 +22°C° 0 mm 1 mps 755 mmHg 77%
    07:00 +24°C° 0 mm 1 mps 755 mmHg 69%
    08:00 +25°C° 0 mm 1 mps 755 mmHg 60%
    09:00 +27°C° 0 mm 1 mps 755 mmHg 52%
    10:00 +28°C° 0 mm 1 mps 755 mmHg 47%
    11:00 +29°C° 0 mm 1 mps 755 mmHg 42%
    12:00 +30°C° 0 mm 1 mps 755 mmHg 38%
    13:00 +31°C° 0 mm 2 mps 754 mmHg 37%
    14:00 +31°C° 0 mm 2 mps 754 mmHg 36%
    15:00 +31°C° 0 mm 2 mps 754 mmHg 35%
    16:00 +31°C° 0 mm 2 mps 754 mmHg 37%
    17:00 +31°C° 0 mm 2 mps 754 mmHg 39%
    18:00 +30°C° 0 mm 2 mps 753 mmHg 41%
    19:00 +29°C° 0 mm 2 mps 753 mmHg 44%
    20:00 +27°C° 0 mm 1 mps 753 mmHg 48%
    21:00 +26°C° 0 mm 1 mps 753 mmHg 52%
    22:00 +25°C° 0 mm 1 mps 753 mmHg 53%
    23:00 +25°C° 0 mm 1 mps 753 mmHg 55%

    23 July, Tuesday

    Time Temperature Precipitation Wind Pressure Humidity
    00:00 +24°C° 0 mm 1 mps 753 mmHg 56%
    01:00 +24°C° 0 mm 1 mps 753 mmHg 58%
    02:00 +23°C° 0 mm 1 mps 752 mmHg 59%
    03:00 +23°C° 0 mm 1 mps 752 mmHg 60%
    04:00 +23°C° 0 mm 1 mps 752 mmHg 62%
    05:00 +23°C° 0 mm 1 mps 752 mmHg 63%
    06:00 +23°C° 0 mm 1 mps 752 mmHg 64%
    07:00 +25°C° 0 mm 1 mps 752 mmHg 60%
    08:00 +27°C° 0 mm 1 mps 752 mmHg 56%
    09:00 +28°C° 0 mm 1 mps 752 mmHg 52%
    10:00 +29°C° 0 mm 1 mps 752 mmHg 48%
    11:00 +30°C° 0 mm 1 mps 752 mmHg 45%
    12:00 +31°C° 0 mm 1 mps 751 mmHg 41%
    13:00 +31°C° 0 mm 2 mps 751 mmHg 40%
    14:00 +31°C° 0 mm 2 mps 751 mmHg 40%
    15:00 +31°C° 0 mm 2 mps 751 mmHg 39%
    16:00 +31°C° 0 mm 2 mps 751 mmHg 40%
    17:00 +31°C° 0 mm 2 mps 751 mmHg 41%
    18:00 +31°C° 0 mm 2 mps 751 mmHg 42%
    19:00 +29°C° 0 mm 2 mps 751 mmHg 47%
    20:00 +27°C° 0 mm 2 mps 751 mmHg 52%
    21:00 +25°C° 0 mm 2 mps 751 mmHg 57%
    22:00 +25°C° 0 mm 2 mps 751 mmHg 61%
    23:00 +24°C° 0 mm 2 mps 751 mmHg 65%

    24 July, Wednesday

    Time Temperature Precipitation Wind Pressure Humidity
    00:00 +24°C° 0 mm 2 mps 751 mmHg 69%
    01:00 +23°C° 0 mm 2 mps 751 mmHg 71%
    02:00 +23°C° 0 mm 2 mps 750 mmHg 72%
    03:00 +23°C° 0 mm 1 mps 750 mmHg 74%
    04:00 +23°C° 0.1 mm 2 mps 750 mmHg 75%
    05:00 +21°C° 0.1 mm 2 mps 750 mmHg 76%
    06:00 +21°C° 0.1 mm 2 mps 750 mmHg 78%
    07:00 +23°C° 0.2 mm 2 mps 750 mmHg 76%
    08:00 +24°C° 0.2 mm 2 mps 750 mmHg 74%
    09:00 +24°C° 0.2 mm 2 mps 750 mmHg 72%
    10:00 +25°C° 0.5 mm 2 mps 750 mmHg 70%
    11:00 +25°C° 0.5 mm 3 mps 750 mmHg 69%
    12:00 +25°C° 0.5 mm 4 mps 750 mmHg 67%
    13:00 +23°C° 4.2 mm 4 mps 750 mmHg 75%
    14:00 +22°C° 4.2 mm 4 mps 750 mmHg 84%
    15:00 +21°C° 4.2 mm 4 mps 750 mmHg 92%
    16:00 +21°C° 2.5 mm 4 mps 750 mmHg 91%
    17:00 +21°C° 2.5 mm 4 mps 750 mmHg 91%
    18:00 +21°C° 2.5 mm 5 mps 749 mmHg 91%
    19:00 +21°C° 2.1 mm 5 mps 749 mmHg 91%
    20:00 +20°C° 2.1 mm 4 mps 749 mmHg 91%
    21:00 +20°C° 2.1 mm 4 mps 749 mmHg 91%
    22:00 +20°C° 1.6 mm 4 mps 749 mmHg 91%
    23:00 +20°C° 1.6 mm 3 mps 749 mmHg 91%

    25 July, Thursday

    Time Temperature Precipitation Wind Pressure Humidity
    00:00 +20°C° 1.6 mm 3 mps 749 mmHg 91%
    01:00 +20°C° 0.8 mm 3 mps 749 mmHg 92%
    02:00 +20°C° 0.8 mm 2 mps 749 mmHg 93%
    03:00 +20°C° 0.8 mm 2 mps 749 mmHg 94%
    04:00 +20°C° 0.5 mm 2 mps 749 mmHg 93%
    05:00 +20°C° 0.5 mm 3 mps 749 mmHg 93%
    06:00 +20°C° 0.5 mm 3 mps 749 mmHg 92%
    07:00 +21°C° 0.6 mm 3 mps 749 mmHg 89%
    08:00 +22°C° 0.6 mm 4 mps 749 mmHg 85%
    09:00 +23°C° 0.6 mm 4 mps 749 mmHg 82%
    10:00 +25°C° 0.4 mm 5 mps 749 mmHg 76%
    11:00 +26°C° 0.4 mm 5 mps 749 mmHg 70%
    12:00 +27°C° 0.4 mm 5 mps 749 mmHg 64%
    13:00 +26°C° 0.9 mm 6 mps 749 mmHg 70%
    14:00 +24°C° 0.9 mm 7 mps 749 mmHg 75%
    15:00 +23°C° 0.9 mm 8 mps 750 mmHg 81%
    16:00 +22°C° 0.4 mm 7 mps 750 mmHg 82%
    17:00 +21°C° 0.4 mm 7 mps 750 mmHg 84%
    18:00 +21°C° 0.4 mm 6 mps 750 mmHg 85%
    19:00 +20°C° 0.2 mm 5 mps 750 mmHg 87%
    20:00 +20°C° 0.2 mm 4 mps 751 mmHg 88%
    21:00 +20°C° 0.2 mm 3 mps 751 mmHg 89%
    22:00 +20°C° 0.2 mm 3 mps 751 mmHg 90%
    23:00 +20°C° 0.2 mm 3 mps 751 mmHg 91%
    Show more